Tracking 20624 objects as of 28-Mar-2020
HD Live streaming from Space Station
objects crossing your sky now

COSMOS 1691 DEB

Track COSMOS 1691 DEB now!
10-day predictions


NORAD ID: 19111
Int'l Code: 1985-094V
Perigee: 1,376.2 km
Apogee: 1,409.4 km
Inclination: 82.6 °
Period: 113.5 minutes
Semi major axis: 7763 km
RCS: 0.0114 m2 (small)
Launch date: October 9, 1985
Source: Commonwealth of Independent States (former USSR) (CIS)
Launch site: PLESETSK MISSILE AND SPACE COMPLEX (PKMTR)

Note: This is SATELLITE DEBRIS
aabbcc
Your satellite tracking list
Your tracking list is empty




NASA's NSSDC Master Catalog

Two Line Element Set (TLE):
1 19111U 85094W   20087.86360972 +.00000145 +00000-0 +68398-3 0  9994
2 19111 082.6073 228.9325 0021370 217.4832 298.3431 12.69092293484955
Source of the keplerian elements: AFSPC